LU9FW-5 Weather Reports


Display with metric or nautical units.
time (UTC)temp
F
wind
direction
speed
MPH
gust
MPH
rain 1hr
in
rain 24hr
in
rain mn
in
humidity
%
barometer
mb
20260508185046 58 225 16.0 27.0 0.00 0.00 0.00 31 1003.3
20260508184928 58 225 18.0 27.0 0.00 0.00 0.00 31 1003.1
20260508184818 58 225 18.0 27.0 0.00 0.00 0.00 31 1003.0
20260508184716 58 225 17.0 24.0 0.00 0.00 0.00 32 1003.0
20260508184606 58 225 17.0 25.0 0.00 0.00 0.00 31 1003.0
20260508184338 57 203 13.0 25.0 0.00 0.00 0.00 33 1003.0
20260508184229 57 180 13.0 25.0 0.00 0.00 0.00 33 1003.1
20260508184122 57 225 14.0 25.0 0.00 0.00 0.00 33 1003.3
20260508184010 56 203 12.0 25.0 0.00 0.00 0.00 33 1003.3
20260508183901 56 203 15.0 25.0 0.00 0.00 0.00 34 1003.3
20260508183753 56 225 17.0 25.0 0.00 0.00 0.00 33 1003.1
20260508183640 57 248 20.0 25.0 0.00 0.00 0.00 33 1003.2
20260508183523 57 225 20.0 23.0 0.00 0.00 0.00 33 1003.2
20260508183312 58 203 15.0 22.0 0.00 0.00 0.00 32 1003.2
20260508183159 58 225 16.0 22.0 0.00 0.00 0.00 31 1003.2
20260508183043 58 225 15.0 21.0 0.00 0.00 0.00 31 1003.4
20260508182936 57 203 11.0 21.0 0.00 0.00 0.00 33 1003.2
20260508182826 57 203 12.0 21.0 0.00 0.00 0.00 33 1003.2
20260508182718 57 203 16.0 21.0 0.00 0.00 0.00 33 1003.3
20260508182557 57 203 15.0 23.0 0.00 0.00 0.00 33 1003.4
20260508182449 57 203 17.0 23.0 0.00 0.00 0.00 33 1003.2
20260508182347 57 225 17.0 23.0 0.00 0.00 0.00 33 1003.3
20260508182237 57 203 14.0 23.0 0.00 0.00 0.00 35 1003.4
20260508182117 57 180 15.0 23.0 0.00 0.00 0.00 33 1003.5
20260508182007 57 203 15.0 25.0 0.00 0.00 0.00 33 1003.2
20260508181907 57 203 16.0 25.0 0.00 0.00 0.00 34 1003.4
20260508181754 57 225 15.0 25.0 0.00 0.00 0.00 34 1003.4
20260508181634 57 203 18.0 25.0 0.00 0.00 0.00 34 1003.3
20260508181527 58 203 16.0 27.0 0.00 0.00 0.00 33 1003.5
20260508181418 58 225 15.0 27.0 0.00 0.00 0.00 33 1003.4
20260508181314 58 225 16.0 27.0 0.00 0.00 0.00 33 1003.4
20260508181156 58 180 17.0 32.0 0.00 0.00 0.00 32 1003.2
20260508181053 58 225 17.0 32.0 0.00 0.00 0.00 32 1003.4
20260508181004 58 203 20.0 32.0 0.00 0.00 0.00 32 1003.3
20260508180936 58 203 16.0 32.0 0.00 0.00 0.00 32 1003.5
20260508180709 58 203 17.0 32.0 0.00 0.00 0.00 32 1003.3
20260508180607 58 225 17.0 32.0 0.00 0.00 0.00 31 1003.3
20260508180456 58 225 19.0 32.0 0.00 0.00 0.00 32 1003.4
20260508180346 58 203 21.0 32.0 0.00 0.00 0.00 32 1003.5
20260508180227 58 225 23.0 32.0 0.00 0.00 0.00 32 1003.4
20260508180126 58 225 17.0 25.0 0.00 0.00 0.00 33 1003.1
20260508180016 58 225 15.0 25.0 0.00 0.00 0.00 33 1003.4
20260508175930 58 225 16.0 25.0 0.00 0.00 0.00 33 1003.5
20260508175744 57 203 15.0 25.0 0.00 0.00 0.00 34 1003.4
20260508175643 57 203 17.0 25.0 0.00 0.00 0.00 33 1003.3
20260508175532 57 203 17.0 25.0 0.00 0.00 0.00 33 1003.6
20260508175422 57 225 19.0 25.0 0.00 0.00 0.00 34 1003.8
20260508175306 57 203 17.0 25.0 0.00 0.00 0.00 35 1003.7
20260508175155 58 203 20.0 25.0 0.00 0.00 0.00 33 1003.6
20260508175051 58 225 17.0 23.0 0.00 0.00 0.00 33 1003.5
20260508174941 58 203 16.0 27.0 0.00 0.00 0.00 34 1003.5
20260508174825 58 203 17.0 27.0 0.00 0.00 0.00 33 1003.7
20260508174715 57 203 14.0 27.0 0.00 0.00 0.00 34 1003.9
20260508174607 57 203 15.0 27.0 0.00 0.00 0.00 34 1003.7
20260508174458 57 203 17.0 27.0 0.00 0.00 0.00 34 1003.7
20260508174345 58 203 18.0 27.0 0.00 0.00 0.00 34 1003.8
20260508174124 58 225 17.0 27.0 0.00 0.00 0.00 33 1003.9
20260508174018 58 180 17.0 25.0 0.00 0.00 0.00 33 1003.8
20260508173902 58 203 17.0 25.0 0.00 0.00 0.00 33 1003.8
20260508173752 58 180 17.0 25.0 0.00 0.00 0.00 35 1003.8
20260508173642 57 203 17.0 25.0 0.00 0.00 0.00 34 1003.7
20260508173533 57 225 12.0 25.0 0.00 0.00 0.00 36 1003.7
20260508173422 57 225 17.0 25.0 0.00 0.00 0.00 35 1003.8
20260508173311 57 225 15.0 25.0 0.00 0.00 0.00 35 1003.8
20260508173205 58 225 15.0 25.0 0.00 0.00 0.00 35 1003.7
20260508173056 58 225 18.0 25.0 0.00 0.00 0.00 34 1003.9
20260508172940 58 203 18.0 24.0 0.00 0.00 0.00 34 1003.7
20260508172827 58 248 14.0 24.0 0.00 0.00 0.00 35 1003.9
20260508172727 58 225 17.0 24.0 0.00 0.00 0.00 35 1003.9
20260508172609 58 203 15.0 24.0 0.00 0.00 0.00 34 1003.9
20260508172453 58 225 17.0 25.0 0.00 0.00 0.00 35 1003.8
20260508172345 59 203 17.0 25.0 0.00 0.00 0.00 35 1004.0
20260508172242 59 225 15.0 25.0 0.00 0.00 0.00 35 1003.7
20260508172128 58 225 15.0 25.0 0.00 0.00 0.00 35 1004.0
20260508172010 58 203 17.0 27.0 0.00 0.00 0.00 36 1004.0
20260508171902 58 225 17.0 31.0 0.00 0.00 0.00 35 1003.9
20260508171753 58 203 17.0 31.0 0.00 0.00 0.00 36 1003.9
20260508171532 58 225 20.0 31.0 0.00 0.00 0.00 34 1003.9
20260508171424 58 225 15.0 31.0 0.00 0.00 0.00 35 1004.0
20260508171312 58 180 15.0 31.0 0.00 0.00 0.00 35 1003.9
20260508171203 58 225 18.0 31.0 0.00 0.00 0.00 35 1003.8
20260508171049 58 203 18.0 31.0 0.00 0.00 0.00 35 1003.9
20260508170939 59 225 21.0 31.0 0.00 0.00 0.00 34 1003.9
20260508170831 59 225 14.0 24.0 0.00 0.00 0.00 37 1003.9
20260508170723 58 203 15.0 24.0 0.00 0.00 0.00 36 1003.9
20260508170605 58 203 16.0 25.0 0.00 0.00 0.00 36 1003.9
20260508170457 58 203 13.0 25.0 0.00 0.00 0.00 36 1003.9
20260508170349 58 225 16.0 25.0 0.00 0.00 0.00 35 1003.8
20260508170240 58 203 17.0 25.0 0.00 0.00 0.00 36 1003.8
20260508170127 58 225 17.0 25.0 0.00 0.00 0.00 35 1004.0
20260508170030 58 203 21.0 25.0 0.00 0.00 0.00 34 1004.1
20260508165911 58 203 18.0 25.0 0.00 0.00 0.00 35 1003.9
20260508165801 58 203 17.0 25.0 0.00 0.00 0.00 36 1003.9
20260508165642 58 225 21.0 25.0 0.00 0.00 0.00 35 1003.8
20260508165532 57 225 16.0 22.0 0.00 0.00 0.00 36 1003.7
20260508165431 57 225 17.0 22.0 0.00 0.00 0.00 37 1003.8
20260508165315 57 203 16.0 21.0 0.00 0.00 0.00 37 1003.9
20260508165157 57 180 17.0 21.0 0.00 0.00 0.00 37 1004.0
20260508164942 57 180 15.0 21.0 0.00 0.00 0.00 38 1004.0
20260508164834 57 158 15.0 21.0 0.00 0.00 0.00 37 1004.0
20260508164715 58 203 15.0 23.0 0.00 0.00 0.00 38 1004.2
20260508164607 58 225 16.0 23.0 0.00 0.00 0.00 37 1004.1
20260508164504 57 225 13.0 23.0 0.00 0.00 0.00 39 1004.2
20260508164352 57 180 14.0 23.0 0.00 0.00 0.00 38 1004.1
20260508164239 57 203 16.0 23.0 0.00 0.00 0.00 37 1004.2
20260508164128 57 203 13.0 23.0 0.00 0.00 0.00 38 1004.0
20260508164017 57 225 12.0 24.0 0.00 0.00 0.00 39 1004.2
20260508163909 56 203 15.0 24.0 0.00 0.00 0.00 38 1004.2
20260508163752 56 180 16.0 24.0 0.00 0.00 0.00 38 1004.2
20260508163644 56 225 16.0 24.0 0.00 0.00 0.00 39 1004.3
20260508163542 56 225 15.0 24.0 0.00 0.00 0.00 38 1004.3
20260508163432 57 203 17.0 24.0 0.00 0.00 0.00 37 1004.3
20260508163314 57 203 16.0 24.0 0.00 0.00 0.00 38 1004.2
20260508163231 57 203 16.0 24.0 0.00 0.00 0.00 38 1004.2
20260508163146 57 203 18.0 27.0 0.00 0.00 0.00 37 1004.3
20260508162948 56 203 15.0 27.0 0.00 0.00 0.00 39 1004.3
20260508162834 56 225 19.0 27.0 0.00 0.00 0.00 38 1004.4
20260508162723 56 203 21.0 27.0 0.00 0.00 0.00 38 1004.4
20260508162613 56 203 20.0 27.0 0.00 0.00 0.00 37 1004.4
20260508162346 56 203 13.0 27.0 0.00 0.00 0.00 40 1004.4
20260508162246 57 203 16.0 27.0 0.00 0.00 0.00 39 1004.3
20260508162143 57 180 20.0 27.0 0.00 0.00 0.00 38 1004.4
20260508162115 56 203 15.0 24.0 0.00 0.00 0.00 38 1004.4
20260508161905 56 203 14.0 24.0 0.00 0.00 0.00 39 1004.5
20260508161757 56 225 14.0 24.0 0.00 0.00 0.00 40 1004.5
20260508161648 56 203 15.0 24.0 0.00 0.00 0.00 39 1004.4
20260508161546 56 203 15.0 24.0 0.00 0.00 0.00 40 1004.3
20260508161425 56 203 17.0 24.0 0.00 0.00 0.00 40 1004.4
20260508161316 57 203 17.0 24.0 0.00 0.00 0.00 39 1004.4
20260508161208 57 225 17.0 24.0 0.00 0.00 0.00 39 1004.5
20260508161114 57 203 19.0 24.0 0.00 0.00 0.00 38 1004.5
20260508161047 57 180 15.0 22.0 0.00 0.00 0.00 39 1004.6
20260508160835 56 203 12.0 22.0 0.00 0.00 0.00 40 1004.5
20260508160724 56 203 13.0 22.0 0.00 0.00 0.00 40 1004.6
20260508160621 56 225 16.0 22.0 0.00 0.00 0.00 39 1004.5
20260508160503 56 225 15.0 20.0 0.00 0.00 0.00 40 1004.5
20260508160353 56 225 15.0 21.0 0.00 0.00 0.00 39 1004.4
20260508160243 56 203 11.0 22.0 0.00 0.00 0.00 41 1004.6
20260508160023 56 203 17.0 22.0 0.00 0.00 0.00 39 1004.6
20260508155804 55 203 15.0 22.0 0.00 0.00 0.00 41 1004.7
20260508155655 54 203 13.0 22.0 0.00 0.00 0.00 42 1004.8
20260508155539 54 203 14.0 22.0 0.00 0.00 0.00 43 1004.7
20260508155436 54 180 15.0 22.0 0.00 0.00 0.00 42 1004.8
20260508155324 54 225 18.0 22.0 0.00 0.00 0.00 42 1004.9
20260508155213 54 180 15.0 24.0 0.00 0.00 0.00 42 1004.8
20260508155057 54 180 15.0 27.0 0.00 0.00 0.00 42 1004.8
20260508154950 54 203 15.0 27.0 0.00 0.00 0.00 43 1004.8
20260508154838 53 203 15.0 27.0 0.00 0.00 0.00 43 1004.7
20260508154729 53 225 16.0 27.0 0.00 0.00 0.00 42 1004.8
20260508154610 53 180 14.0 27.0 0.00 0.00 0.00 43 1004.8
20260508154527 53 225 12.0 27.0 0.00 0.00 0.00 43 1004.7
20260508154459 54 225 15.0 27.0 0.00 0.00 0.00 41 1004.9
20260508154247 54 203 18.0 27.0 0.00 0.00 0.00 42 1004.9
20260508154128 55 203 21.0 27.0 0.00 0.00 0.00 41 1004.9
20260508154024 55 203 18.0 24.0 0.00 0.00 0.00 41 1004.9
20260508153913 55 203 17.0 24.0 0.00 0.00 0.00 42 1004.9
20260508153811 55 180 17.0 24.0 0.00 0.00 0.00 43 1004.9
20260508153647 55 180 16.0 24.0 0.00 0.00 0.00 42 1004.7
20260508153539 55 180 17.0 24.0 0.00 0.00 0.00 42 1005.0
20260508153431 55 203 16.0 24.0 0.00 0.00 0.00 42 1004.9
20260508153207 54 203 15.0 23.0 0.00 0.00 0.00 42 1005.1
20260508153059 53 203 16.0 23.0 0.00 0.00 0.00 43 1004.9
20260508152950 53 203 12.0 23.0 0.00 0.00 0.00 42 1005.0
20260508152842 53 225 15.0 23.0 0.00 0.00 0.00 44 1005.1
20260508152723 53 225 15.0 23.0 0.00 0.00 0.00 43 1005.1
20260508152614 53 225 15.0 23.0 0.00 0.00 0.00 44 1005.1
20260508152510 53 203 17.0 23.0 0.00 0.00 0.00 44 1005.1
20260508152403 54 203 18.0 23.0 0.00 0.00 0.00 42 1005.0
20260508152243 55 225 15.0 23.0 0.00 0.00 0.00 42 1005.1
20260508152134 55 203 17.0 24.0 0.00 0.00 0.00 43 1005.0
20260508152032 55 203 14.0 25.0 0.00 0.00 0.00 43 1005.0
20260508151924 53 203 15.0 25.0 0.00 0.00 0.00 43 1005.1
20260508151805 53 225 15.0 25.0 0.00 0.00 0.00 44 1005.1
20260508151653 53 225 17.0 25.0 0.00 0.00 0.00 43 1005.3
20260508151544 53 225 17.0 25.0 0.00 0.00 0.00 43 1005.1
20260508151435 53 203 16.0 25.0 0.00 0.00 0.00 43 1005.2
20260508151325 54 158 17.0 25.0 0.00 0.00 0.00 44 1005.1
20260508151209 54 203 19.0 25.0 0.00 0.00 0.00 43 1005.2
20260508151101 54 203 17.0 25.0 0.00 0.00 0.00 42 1005.2
20260508150954 54 180 20.0 25.0 0.00 0.00 0.00 43 1005.0
20260508150855 53 203 18.0 24.0 0.00 0.00 0.00 42 1005.3
20260508150834 54 180 18.0 24.0 0.00 0.00 0.00 43 1005.2
20260508150625 54 203 18.0 23.0 0.00 0.00 0.00 44 1005.3
20260508150517 54 225 18.0 23.0 0.00 0.00 0.00 43 1005.3
20260508150353 54 203 17.0 23.0 0.00 0.00 0.00 44 1005.4
20260508150253 53 203 17.0 23.0 0.00 0.00 0.00 43 1005.3
20260508150136 53 225 15.0 23.0 0.00 0.00 0.00 44 1005.2
20260508150028 53 203 15.0 25.0 0.00 0.00 0.00 44 1005.5
20260508145911 53 180 15.0 27.0 0.00 0.00 0.00 44 1005.5
20260508145802 54 203 17.0 27.0 0.00 0.00 0.00 45 1005.2
20260508145701 54 203 15.0 27.0 0.00 0.00 0.00 43 1005.4
20260508145551 54 203 16.0 27.0 0.00 0.00 0.00 43 1005.6
20260508145434 53 203 14.0 27.0 0.00 0.00 0.00 44 1005.4
20260508145324 52 203 15.0 27.0 0.00 0.00 0.00 43 1005.3
20260508145224 52 180 15.0 27.0 0.00 0.00 0.00 43 1005.3
20260508145107 52 203 17.0 27.0 0.00 0.00 0.00 45 1005.6
20260508144949 53 203 19.0 27.0 0.00 0.00 0.00 45 1005.5
20260508144845 53 225 21.0 27.0 0.00 0.00 0.00 43 1005.4
20260508144733 53 203 19.0 25.0 0.00 0.00 0.00 43 1005.4
20260508144623 52 225 15.0 24.0 0.00 0.00 0.00 44 1005.6
20260508144507 52 203 17.0 24.0 0.00 0.00 0.00 45 1005.3
20260508144359 52 203 18.0 24.0 0.00 0.00 0.00 44 1005.5
20260508144332 53 203 15.0 24.0 0.00 0.00 0.00 45 1005.6
20260508144255 53 203 17.0 24.0 0.00 0.00 0.00 44 1005.6
20260508144026 53 225 16.0 27.0 0.00 0.00 0.00 44 1005.6
20260508143920 53 203 15.0 27.0 0.00 0.00 0.00 43 1005.6
20260508143808 53 180 16.0 27.0 0.00 0.00 0.00 45 1005.7
20260508143700 53 203 19.0 27.0 0.00 0.00 0.00 44 1005.6
20260508143548 53 203 17.0 29.0 0.00 0.00 0.00 43 1005.4
20260508143437 53 180 17.0 29.0 0.00 0.00 0.00 43 1005.5
20260508143327 53 225 12.0 29.0 0.00 0.00 0.00 46 1005.7
20260508143300 53 203 19.0 29.0 0.00 0.00 0.00 45 1005.6
20260508143058 53 180 20.0 29.0 0.00 0.00 0.00 44 1005.5
20260508142955 51 203 19.0 29.0 0.00 0.00 0.00 44 1005.7
20260508142847 51 180 18.0 29.0 0.00 0.00 0.00 46 1005.7
20260508142737 51 203 21.0 29.0 0.00 0.00 0.00 46 1005.7
20260508142621 51 180 21.0 29.0 0.00 0.00 0.00 46 1005.6
20260508142509 51 203 17.0 27.0 0.00 0.00 0.00 47 1005.7
20260508142402 51 180 21.0 27.0 0.00 0.00 0.00 46 1005.8
20260508142300 51 203 19.0 27.0 0.00 0.00 0.00 47 1005.6
20260508142135 51 225 20.0 27.0 0.00 0.00 0.00 47 1005.7
20260508142033 51 203 17.0 27.0 0.00 0.00 0.00 47 1005.6
20260508141921 51 203 21.0 27.0 0.00 0.00 0.00 47 1005.8
20260508141811 51 203 16.0 27.0 0.00 0.00 0.00 47 1005.7
20260508141653 52 203 21.0 27.0 0.00 0.00 0.00 47 1005.5
20260508141441 52 203 15.0 27.0 0.00 0.00 0.00 47 1005.7
20260508141331 51 225 15.0 27.0 0.00 0.00 0.00 48 1005.8
20260508141217 51 203 15.0 27.0 0.00 0.00 0.00 47 1005.7
20260508141107 51 203 17.0 27.0 0.00 0.00 0.00 48 1005.8
20260508141003 51 203 19.0 27.0 0.00 0.00 0.00 48 1005.7
20260508140848 51 225 20.0 25.0 0.00 0.00 0.00 47 1005.8
20260508140735 51 225 20.0 25.0 0.00 0.00 0.00 47 1005.7
20260508140659 51 203 17.0 25.0 0.00 0.00 0.00 48 1005.8
20260508140514 51 180 17.0 25.0 0.00 0.00 0.00 48 1005.7
20260508140406 51 203 17.0 25.0 0.00 0.00 0.00 48 1005.8
20260508140248 51 203 17.0 25.0 0.00 0.00 0.00 48 1005.8
20260508140140 51 180 17.0 25.0 0.00 0.00 0.00 48 1005.7
20260508140036 51 225 18.0 25.0 0.00 0.00 0.00 47 1005.8
20260508135924 51 180 17.0 25.0 0.00 0.00 0.00 49 1005.7
20260508135808 51 203 19.0 25.0 0.00 0.00 0.00 47 1005.7
20260508135658 51 180 15.0 25.0 0.00 0.00 0.00 48 1005.7
20260508135550 51 203 17.0 25.0 0.00 0.00 0.00 48 1005.6
20260508135447 51 203 19.0 25.0 0.00 0.00 0.00 49 1005.6
20260508135328 51 180 20.0 25.0 0.00 0.00 0.00 48 1005.8
20260508135218 51 158 16.0 27.0 0.00 0.00 0.00 49 1005.6
20260508135110 50 203 16.0 27.0 0.00 0.00 0.00 49 1005.8
20260508135009 50 203 16.0 27.0 0.00 0.00 0.00 50 1005.7
20260508134848 51 203 18.0 27.0 0.00 0.00 0.00 48 1005.7
20260508134738 51 203 17.0 27.0 0.00 0.00 0.00 48 1005.7
20260508134630 51 203 17.0 27.0 0.00 0.00 0.00 49 1005.7
20260508134520 50 225 17.0 27.0 0.00 0.00 0.00 49 1005.5
20260508134400 50 203 17.0 27.0 0.00 0.00 0.00 49 1005.7
20260508134252 50 135 17.0 27.0 0.00 0.00 0.00 50 1005.7
20260508134143 50 203 19.0 27.0 0.00 0.00 0.00 48 1005.5
20260508134038 50 203 19.0 27.0 0.00 0.00 0.00 49 1005.5
20260508133924 50 158 20.0 27.0 0.00 0.00 0.00 49 1005.4
20260508133814 50 180 17.0 27.0 0.00 0.00 0.00 50 1005.4
20260508133704 50 225 20.0 27.0 0.00 0.00 0.00 49 1005.4
20260508133556 50 203 18.0 25.0 0.00 0.00 0.00 49 1005.4
20260508133328 50 225 19.0 27.0 0.00 0.00 0.00 49 1005.5
20260508133226 50 203 17.0 27.0 0.00 0.00 0.00 49 1005.4
20260508133115 50 225 17.0 27.0 0.00 0.00 0.00 49 1005.5
20260508132959 50 203 15.0 27.0 0.00 0.00 0.00 49 1005.4
20260508132846 49 180 21.0 27.0 0.00 0.00 0.00 49 1005.4
20260508132744 49 225 17.0 27.0 0.00 0.00 0.00 49 1005.1
20260508132634 49 180 17.0 27.0 0.00 0.00 0.00 50 1005.6
20260508132518 49 203 21.0 27.0 0.00 0.00 0.00 50 1005.4
20260508132258 49 203 17.0 27.0 0.00 0.00 0.00 50 1005.3
20260508132148 49 203 16.0 27.0 0.00 0.00 0.00 50 1005.3
20260508132030 49 225 17.0 27.0 0.00 0.00 0.00 49 1005.3
20260508131934 49 180 17.0 27.0 0.00 0.00 0.00 50 1005.2
20260508131823 49 225 18.0 27.0 0.00 0.00 0.00 49 1005.2
20260508131705 49 203 20.0 27.0 0.00 0.00 0.00 49 1005.0
20260508131547 49 225 21.0 27.0 0.00 0.00 0.00 49 1005.1
20260508131445 49 225 20.0 27.0 0.00 0.00 0.00 49 1005.1
20260508131334 49 203 19.0 27.0 0.00 0.00 0.00 50 1005.1
20260508131226 49 225 17.0 27.0 0.00 0.00 0.00 50 1004.9
20260508131108 49 248 20.0 27.0 0.00 0.00 0.00 50 1005.2
20260508131000 49 203 20.0 27.0 0.00 0.00 0.00 50 1005.0
20260508130859 49 225 19.0 25.0 0.00 0.00 0.00 50 1005.0
20260508130747 49 180 16.0 25.0 0.00 0.00 0.00 51 1005.0
20260508130626 49 180 18.0 25.0 0.00 0.00 0.00 50 1005.0
20260508130516 49 225 17.0 25.0 0.00 0.00 0.00 51 1005.0
20260508130408 50 203 17.0 31.0 0.00 0.00 0.00 51 1004.9
20260508130304 50 225 21.0 31.0 0.00 0.00 0.00 50 1004.9
20260508130148 50 203 16.0 31.0 0.00 0.00 0.00 50 1005.0
20260508130038 50 203 18.0 31.0 0.00 0.00 0.00 50 1005.1
20260508130010 50 203 18.0 31.0 0.00 0.00 0.00 50 1004.9
20260508125932 50 203 18.0 31.0 0.00 0.00 0.00 51 1005.0
20260508125659 50 225 17.0 31.0 0.00 0.00 0.00 52 1004.9
20260508125556 49 203 17.0 31.0 0.00 0.00 0.00 52 1004.9
20260508125445 49 203 19.0 31.0 0.00 0.00 0.00 51 1005.1
20260508125343 49 203 15.0 25.0 0.00 0.00 0.00 52 1005.0
20260508125223 49 203 17.0 25.0 0.00 0.00 0.00 52 1004.9
20260508125113 49 203 17.0 27.0 0.00 0.00 0.00 53 1005.0
20260508125004 49 203 18.0 27.0 0.00 0.00 0.00 52 1004.9
20260508124855 49 225 13.0 27.0 0.00 0.00 0.00 53 1005.0
20260508124736 49 203 18.0 27.0 0.00 0.00 0.00 53 1005.0
20260508124632 49 203 17.0 27.0 0.00 0.00 0.00 53 1004.9
20260508124524 49 203 17.0 27.0 0.00 0.00 0.00 53 1004.8
20260508124412 49 203 20.0 27.0 0.00 0.00 0.00 53 1005.0
20260508124303 49 203 20.0 27.0 0.00 0.00 0.00 52 1004.9
20260508124149 49 203 15.0 27.0 0.00 0.00 0.00 53 1004.7
20260508124041 49 203 14.0 24.0 0.00 0.00 0.00 54 1004.8
20260508123933 49 203 17.0 24.0 0.00 0.00 0.00 55 1004.7
20260508123814 49 180 17.0 24.0 0.00 0.00 0.00 54 1004.7
20260508123704 49 180 16.0 24.0 0.00 0.00 0.00 55 1004.6
20260508123556 49 225 15.0 24.0 0.00 0.00 0.00 55 1004.7
20260508123454 49 203 17.0 24.0 0.00 0.00 0.00 54 1004.7
20260508123336 48 225 15.0 24.0 0.00 0.00 0.00 55 1004.8
20260508123115 48 180 15.0 25.0 0.00 0.00 0.00 56 1004.8
20260508123013 48 180 15.0 25.0 0.00 0.00 0.00 56 1004.7
20260508122852 48 203 17.0 25.0 0.00 0.00 0.00 56 1004.9
20260508122743 48 180 17.0 25.0 0.00 0.00 0.00 56 1004.7
20260508122634 48 203 15.0 25.0 0.00 0.00 0.00 56 1004.9
20260508122526 48 203 17.0 25.0 0.00 0.00 0.00 56 1004.9
20260508122407 48 203 16.0 25.0 0.00 0.00 0.00 56 1004.7
20260508122306 47 203 18.0 25.0 0.00 0.00 0.00 56 1004.7
20260508122156 47 203 17.0 25.0 0.00 0.00 0.00 57 1004.6
20260508122046 47 203 17.0 25.0 0.00 0.00 0.00 57 1004.7
20260508121926 47 203 19.0 25.0 0.00 0.00 0.00 56 1004.6
20260508121849 47 203 15.0 23.0 0.00 0.00 0.00 58 1004.7
20260508121814 47 225 17.0 23.0 0.00 0.00 0.00 57 1004.7
20260508121600 47 203 14.0 23.0 0.00 0.00 0.00 59 1004.8
20260508121442 47 203 17.0 23.0 0.00 0.00 0.00 57 1004.7
20260508121333 47 203 15.0 23.0 0.00 0.00 0.00 59 1004.5
20260508121246 47 203 17.0 23.0 0.00 0.00 0.00 58 1004.7
20260508121121 47 203 14.0 23.0 0.00 0.00 0.00 58 1004.6
20260508121005 47 203 15.0 23.0 0.00 0.00 0.00 59 1004.6
20260508120855 47 203 15.0 23.0 0.00 0.00 0.00 59 1004.7
20260508120746 47 180 12.0 23.0 0.00 0.00 0.00 60 1004.7
20260508120524 47 203 17.0 23.0 0.00 0.00 0.00 59 1004.6
20260508120412 47 225 15.0 23.0 0.00 0.00 0.00 58 1004.5
20260508120306 46 158 16.0 24.0 0.00 0.00 0.00 59 1004.5
20260508120206 46 203 14.0 24.0 0.00 0.00 0.00 59 1004.6
20260508120043 46 158 15.0 24.0 0.00 0.00 0.00 59 1004.6
20260508115933 46 203 15.0 24.0 0.00 0.00 0.00 60 1004.6
20260508115823 46 180 15.0 24.0 0.00 0.00 0.00 59 1004.6
20260508115713 46 180 17.0 24.0 0.00 0.00 0.00 60 1004.6
20260508115555 46 203 14.0 24.0 0.00 0.00 0.00 60 1004.7
20260508115453 46 180 17.0 24.0 0.00 0.00 0.00 60 1004.6
20260508115345 46 203 16.0 24.0 0.00 0.00 0.00 61 1004.7
20260508115235 46 203 15.0 21.0 0.00 0.00 0.00 61 1004.7
20260508115126 46 203 15.0 21.0 0.00 0.00 0.00 61 1004.7
20260508115007 45 203 14.0 21.0 0.00 0.00 0.00 61 1004.5
20260508114858 45 203 12.0 21.0 0.00 0.00 0.00 61 1004.4
20260508114755 45 203 13.0 21.0 0.00 0.00 0.00 61 1004.5
20260508114728 45 203 15.0 21.0 0.00 0.00 0.00 61 1004.4
20260508114526 45 203 16.0 21.0 0.00 0.00 0.00 61 1004.5
20260508114417 45 203 13.0 21.0 0.00 0.00 0.00 62 1004.3
20260508114313 45 203 15.0 21.0 0.00 0.00 0.00 62 1004.5
20260508114154 45 225 15.0 21.0 0.00 0.00 0.00 63 1004.4
20260508113933 45 203 13.0 21.0 0.00 0.00 0.00 63 1004.3
20260508113824 45 180 14.0 21.0 0.00 0.00 0.00 63 1004.2
20260508113726 45 203 15.0 21.0 0.00 0.00 0.00 62 1004.2
20260508113651 44 180 16.0 21.0 0.00 0.00 0.00 62 1004.2
20260508113455 44 203 13.0 21.0 0.00 0.00 0.00 63 1004.4
20260508113345 44 180 15.0 21.0 0.00 0.00 0.00 63 1004.3
20260508113229 44 225 15.0 21.0 0.00 0.00 0.00 63 1004.4
20260508113128 44 225 15.0 21.0 0.00 0.00 0.00 63 1004.3
20260508113010 44 203 13.0 20.0 0.00 0.00 0.00 64 1004.1
20260508112745 44 203 11.0 18.0 0.00 0.00 0.00 65 1004.3
20260508112634 44 203 14.0 18.0 0.00 0.00 0.00 65 1004.3
20260508112532 43 225 14.0 18.0 0.00 0.00 0.00 65 1004.4
20260508112420 43 203 11.0 18.0 0.00 0.00 0.00 66 1004.5
20260508112306 43 203 10.0 18.0 0.00 0.00 0.00 66 1004.4
20260508112153 43 203 11.0 18.0 0.00 0.00 0.00 66 1004.4
20260508112045 43 203 13.0 18.0 0.00 0.00 0.00 65 1004.5
20260508111943 43 203 14.0 18.0 0.00 0.00 0.00 65 1004.4
20260508111823 43 203 12.0 17.0 0.00 0.00 0.00 66 1004.4
20260508111712 43 203 11.0 17.0 0.00 0.00 0.00 66 1004.4
20260508111604 43 225 12.0 17.0 0.00 0.00 0.00 66 1004.5
20260508111336 43 203 11.0 16.0 0.00 0.00 0.00 66 1004.4
20260508111234 42 203 11.0 16.0 0.00 0.00 0.00 66 1004.5
20260508111133 42 203 10.0 16.0 0.00 0.00 0.00 66 1004.6
20260508111058 42 225 11.0 16.0 0.00 0.00 0.00 66 1004.6
20260508110855 42 180 11.0 16.0 0.00 0.00 0.00 66 1004.6
20260508110746 42 203 11.0 16.0 0.00 0.00 0.00 67 1004.3
20260508110638 42 180 11.0 16.0 0.00 0.00 0.00 67 1004.5
20260508110530 42 180 11.0 16.0 0.00 0.00 0.00 67 1004.5
20260508110412 42 225 11.0 16.0 0.00 0.00 0.00 67 1004.4
20260508110310 42 203 10.0 16.0 0.00 0.00 0.00 68 1004.2
20260508110200 42 225 10.0 16.0 0.00 0.00 0.00 68 1004.4
20260508110052 42 203 11.0 15.0 0.00 0.00 0.00 68 1004.5
20260508105934 42 203 11.0 15.0 0.00 0.00 0.00 67 1004.4
20260508105823 42 203 9.0 15.0 0.00 0.00 0.00 68 1004.4
20260508105722 42 203 9.0 15.0 0.00 0.00 0.00 68 1004.4
20260508105611 42 203 11.0 15.0 0.00 0.00 0.00 68 1004.4
20260508105454 42 225 11.0 15.0 0.00 0.00 0.00 68 1004.3
20260508105344 42 203 10.0 15.0 0.00 0.00 0.00 68 1004.4
20260508105234 42 203 11.0 15.0 0.00 0.00 0.00 67 1004.3
20260508105126 42 203 11.0 15.0 0.00 0.00 0.00 67 1004.3
20260508105006 42 203 9.0 15.0 0.00 0.00 0.00 68 1004.2
20260508104756 41 203 11.0 15.0 0.00 0.00 0.00 68 1004.2
20260508104651 41 203 11.0 15.0 0.00 0.00 0.00 68 1004.1
20260508104529 41 225 10.0 14.0 0.00 0.00 0.00 69 1004.2
20260508104422 41 225 9.0 14.0 0.00 0.00 0.00 69 1004.0
20260508104309 41 225 10.0 14.0 0.00 0.00 0.00 68 1004.1
20260508104208 41 225 10.0 14.0 0.00 0.00 0.00 68 1004.1
20260508104049 41 203 9.0 14.0 0.00 0.00 0.00 69 1004.0
20260508103940 41 225 11.0 14.0 0.00 0.00 0.00 68 1004.0
20260508103828 41 225 11.0 14.0 0.00 0.00 0.00 69 1004.2
20260508103725 41 203 11.0 14.0 0.00 0.00 0.00 68 1003.7
20260508103601 41 225 12.0 14.0 0.00 0.00 0.00 68 1003.9
20260508103459 41 203 11.0 14.0 0.00 0.00 0.00 69 1003.8
20260508103357 41 203 11.0 16.0 0.00 0.00 0.00 69 1003.9
20260508103245 42 203 11.0 16.0 0.00 0.00 0.00 68 1003.9
20260508103126 42 203 11.0 16.0 0.00 0.00 0.00 69 1003.8
20260508103033 42 225 9.0 16.0 0.00 0.00 0.00 69 1003.9
20260508102944 42 225 11.0 16.0 0.00 0.00 0.00 68 1004.0
20260508102759 42 203 11.0 16.0 0.00 0.00 0.00 68 1003.8
20260508102640 42 203 11.0 16.0 0.00 0.00 0.00 68 1004.0
20260508102531 42 225 10.0 18.0 0.00 0.00 0.00 69 1003.7
20260508102421 42 203 12.0 18.0 0.00 0.00 0.00 68 1003.8
20260508102202 41 225 11.0 18.0 0.00 0.00 0.00 69 1003.7
20260508102052 41 225 10.0 18.0 0.00 0.00 0.00 69 1003.7
20260508101943 41 203 11.0 18.0 0.00 0.00 0.00 69 1003.9
20260508101836 42 203 11.0 18.0 0.00 0.00 0.00 69 1003.8
20260508101714 42 225 9.0 18.0 0.00 0.00 0.00 69 1003.6
20260508101606 42 203 12.0 18.0 0.00 0.00 0.00 68 1003.6
20260508101504 42 203 11.0 17.0 0.00 0.00 0.00 68 1003.7
20260508101354 42 225 10.0 17.0 0.00 0.00 0.00 69 1003.7
20260508101236 42 180 11.0 17.0 0.00 0.00 0.00 69 1003.6
20260508101126 42 225 11.0 16.0 0.00 0.00 0.00 68 1003.5
20260508101016 41 225 11.0 16.0 0.00 0.00 0.00 69 1003.5
20260508100911 41 225 11.0 16.0 0.00 0.00 0.00 69 1003.5
20260508100644 41 225 10.0 16.0 0.00 0.00 0.00 70 1003.6
20260508100533 41 225 10.0 17.0 0.00 0.00 0.00 70 1003.7
20260508100425 42 203 10.0 17.0 0.00 0.00 0.00 70 1003.6
20260508100306 42 203 12.0 18.0 0.00 0.00 0.00 69 1003.6
20260508100204 42 203 10.0 18.0 0.00 0.00 0.00 69 1003.5
20260508100056 42 203 12.0 18.0 0.00 0.00 0.00 69 1003.6
20260508095946 42 225 12.0 18.0 0.00 0.00 0.00 69 1003.6
20260508095828 42 203 13.0 18.0 0.00 0.00 0.00 68 1003.6
20260508095612 42 225 14.0 18.0 0.00 0.00 0.00 68 1003.5
20260508095502 42 203 11.0 18.0 0.00 0.00 0.00 69 1003.4
20260508095346 42 225 15.0 18.0 0.00 0.00 0.00 69 1003.7
20260508095238 42 225 11.0 16.0 0.00 0.00 0.00 69 1003.6
20260508095128 42 203 12.0 16.0 0.00 0.00 0.00 69 1003.5
20260508095026 42 180 11.0 16.0 0.00 0.00 0.00 70 1003.6
20260508094909 42 203 11.0 16.0 0.00 0.00 0.00 70 1003.5
20260508094842 42 203 12.0 16.0 0.00 0.00 0.00 69 1003.4
20260508094648 42 203 11.0 16.0 0.00 0.00 0.00 70 1003.4
20260508094537 42 225 11.0 17.0 0.00 0.00 0.00 70 1003.4
20260508094426 42 225 11.0 17.0 0.00 0.00 0.00 69 1003.4
20260508094316 42 225 12.0 17.0 0.00 0.00 0.00 69 1003.6
20260508094208 42 225 11.0 17.0 0.00 0.00 0.00 70 1003.5
20260508094055 42 203 10.0 17.0 0.00 0.00 0.00 70 1003.5
20260508093937 42 203 11.0 17.0 0.00 0.00 0.00 70 1003.5
20260508093835 42 225 11.0 18.0 0.00 0.00 0.00 70 1003.6
20260508093727 41 225 12.0 18.0 0.00 0.00 0.00 70 1003.5
20260508093616 41 225 10.0 18.0 0.00 0.00 0.00 70 1003.6
20260508093456 41 225 10.0 18.0 0.00 0.00 0.00 71 1003.5
20260508093348 41 203 11.0 18.0 0.00 0.00 0.00 70 1003.5
20260508093243 41 225 11.0 18.0 0.00 0.00 0.00 71 1003.5
20260508093014 41 225 12.0 18.0 0.00 0.00 0.00 70 1003.4
20260508092906 41 203 10.0 18.0 0.00 0.00 0.00 71 1003.6
20260508092804 41 203 11.0 15.0 0.00 0.00 0.00 70 1003.5
20260508092652 41 180 11.0 15.0 0.00 0.00 0.00 70 1003.6
20260508092534 41 225 11.0 15.0 0.00 0.00 0.00 71 1003.5
20260508092426 41 225 10.0 15.0 0.00 0.00 0.00 71 1003.4
20260508092316 41 225 11.0 16.0 0.00 0.00 0.00 71 1003.5
20260508092208 41 225 11.0 16.0 0.00 0.00 0.00 71 1003.4
20260508092055 41 225 10.0 17.0 0.00 0.00 0.00 71 1003.4
20260508091945 41 225 11.0 17.0 0.00 0.00 0.00 71 1003.6
20260508091835 41 225 11.0 17.0 0.00 0.00 0.00 70 1003.4
20260508091726 42 225 10.0 17.0 0.00 0.00 0.00 71 1003.4
20260508091625 42 225 10.0 17.0 0.00 0.00 0.00 71 1003.5
20260508091500 42 225 11.0 17.0 0.00 0.00 0.00 70 1003.5
20260508091352 42 203 12.0 17.0 0.00 0.00 0.00 70 1003.4
20260508091250 42 225 11.0 17.0 0.00 0.00 0.00 70 1003.6
20260508091126 42 180 13.0 17.0 0.00 0.00 0.00 70 1003.5
20260508091024 42 203 11.0 16.0 0.00 0.00 0.00 70 1003.4
20260508090909 42 225 13.0 16.0 0.00 0.00 0.00 70 1003.3
20260508090801 42 203 11.0 17.0 0.00 0.00 0.00 71 1003.5
20260508090644 42 203 11.0 17.0 0.00 0.00 0.00 71 1003.6
20260508090431 42 203 11.0 17.0 0.00 0.00 0.00 71 1003.5
20260508090321 42 203 11.0 17.0 0.00 0.00 0.00 70 1003.4
20260508090206 42 203 10.0 17.0 0.00 0.00 0.00 71 1003.4
20260508090055 42 180 12.0 18.0 0.00 0.00 0.00 71 1003.5
20260508085946 42 225 12.0 18.0 0.00 0.00 0.00 70 1003.5
20260508085845 42 225 11.0 18.0 0.00 0.00 0.00 71 1003.3
20260508085724 42 203 13.0 18.0 0.00 0.00 0.00 71 1003.5
20260508085612 42 203 11.0 18.0 0.00 0.00 0.00 71 1003.3
20260508085510 42 203 11.0 18.0 0.00 0.00 0.00 72 1003.4
20260508085401 42 203 10.0 18.0 0.00 0.00 0.00 72 1003.4
20260508085243 42 203 11.0 18.0 0.00 0.00 0.00 71 1003.3
20260508085133 42 225 14.0 18.0 0.00 0.00 0.00 71 1003.2
20260508085033 42 203 11.0 18.0 0.00 0.00 0.00 71 1003.2
20260508084924 42 203 12.0 18.0 0.00 0.00 0.00 71 1003.3
20260508084755 42 225 12.0 18.0 0.00 0.00 0.00 71 1003.3
20260508084650 42 225 11.0 18.0 0.00 0.00 0.00 72 1003.1
20260508084541 42 203 13.0 18.0 0.00 0.00 0.00 71 1003.1
20260508084439 42 225 12.0 20.0 0.00 0.00 0.00 72 1003.3
20260508084321 42 203 11.0 20.0 0.00 0.00 0.00 72 1003.0
20260508084210 42 203 12.0 20.0 0.00 0.00 0.00 71 1003.2
20260508084135 42 203 11.0 20.0 0.00 0.00 0.00 71 1003.1
20260508084106 42 203 11.0 20.0 0.00 0.00 0.00 71 1003.1
20260508083838 42 225 13.0 20.0 0.00 0.00 0.00 72 1003.3
20260508083730 42 225 11.0 20.0 0.00 0.00 0.00 72 1003.3
20260508083632 42 203 11.0 20.0 0.00 0.00 0.00 72 1003.0
20260508083556 42 225 12.0 20.0 0.00 0.00 0.00 71 1003.4
20260508083355 42 203 13.0 20.0 0.00 0.00 0.00 70 1003.1
20260508083245 42 203 15.0 20.0 0.00 0.00 0.00 71 1003.1
20260508083144 42 225 13.0 20.0 0.00 0.00 0.00 71 1003.2
20260508083101 42 225 11.0 20.0 0.00 0.00 0.00 72 1003.2
20260508082805 42 203 11.0 20.0 0.00 0.00 0.00 71 1003.1
20260508082654 42 225 11.0 20.0 0.00 0.00 0.00 71 1003.1
20260508082551 42 225 15.0 18.0 0.00 0.00 0.00 71 1003.1
20260508082317 42 225 11.0 17.0 0.00 0.00 0.00 72 1003.2
20260508082215 42 225 11.0 17.0 0.00 0.00 0.00 72 1003.2
20260508082103 42 203 12.0 17.0 0.00 0.00 0.00 72 1003.2
20260508081946 42 225 11.0 16.0 0.00 0.00 0.00 72 1003.2
20260508081836 42 203 12.0 16.0 0.00 0.00 0.00 72 1003.2
20260508081729 42 225 10.0 16.0 0.00 0.00 0.00 72 1003.1
20260508081626 42 203 13.0 16.0 0.00 0.00 0.00 72 1003.0
20260508081533 42 203 11.0 16.0 0.00 0.00 0.00 73 1003.2
20260508081505 42 203 11.0 16.0 0.00 0.00 0.00 73 1003.2
20260508081247 42 225 10.0 16.0 0.00 0.00 0.00 73 1003.2
20260508081145 42 225 10.0 16.0 0.00 0.00 0.00 73 1003.2
20260508081102 42 203 11.0 16.0 0.00 0.00 0.00 73 1003.2
20260508081026 42 203 10.0 16.0 0.00 0.00 0.00 74 1003.1
20260508080809 42 203 10.0 16.0 0.00 0.00 0.00 73 1003.2
20260508080701 41 225 11.0 16.0 0.00 0.00 0.00 74 1003.1
20260508080541 41 203 11.0 15.0 0.00 0.00 0.00 74 1003.1
20260508080506 41 203 10.0 15.0 0.00 0.00 0.00 75 1003.2
20260508080328 41 203 8.0 15.0 0.00 0.00 0.00 76 1003.1
20260508080217 41 225 10.0 15.0 0.00 0.00 0.00 76 1003.1
20260508080103 41 225 11.0 15.0 0.00 0.00 0.00 76 1003.2
20260508075952 41 225 11.0 15.0 0.00 0.00 0.00 75 1003.1
20260508075852 41 225 11.0 15.0 0.00 0.00 0.00 76 1003.2
20260508075740 41 203 11.0 15.0 0.00 0.00 0.00 76 1003.3
20260508075615 41 203 10.0 15.0 0.00 0.00 0.00 76 1003.0
20260508075528 41 203 11.0 15.0 0.00 0.00 0.00 76 1002.9
20260508075453 41 225 10.0 14.0 0.00 0.00 0.00 77 1002.9
20260508075257 40 180 10.0 14.0 0.00 0.00 0.00 78 1003.0
20260508075133 40 203 8.0 14.0 0.00 0.00 0.00 78 1003.1
20260508075037 40 225 9.0 14.0 0.00 0.00 0.00 78 1003.2
20260508074922 40 225 8.0 14.0 0.00 0.00 0.00 79 1003.1
20260508074656 40 225 9.0 14.0 0.00 0.00 0.00 79 1003.1
20260508074544 40 225 8.0 11.0 0.00 0.00 0.00 80 1003.1
20260508074436 40 225 8.0 11.0 0.00 0.00 0.00 80 1003.0
20260508074326 40 225 8.0 11.0 0.00 0.00 0.00 80 1003.0
20260508074208 40 225 8.0 11.0 0.00 0.00 0.00 80 1003.0
20260508074100 40 203 8.0 11.0 0.00 0.00 0.00 80 1003.0
20260508073958 40 225 7.0 11.0 0.00 0.00 0.00 80 1003.0
20260508073851 40 203 8.0 11.0 0.00 0.00 0.00 80 1003.1
20260508073731 40 225 7.0 11.0 0.00 0.00 0.00 80 1003.1
20260508073622 40 225 8.0 11.0 0.00 0.00 0.00 80 1002.9
20260508073518 40 225 7.0 11.0 0.00 0.00 0.00 80 1002.9
20260508073408 40 225 7.0 11.0 0.00 0.00 0.00 80 1003.2
20260508073140 40 203 8.0 11.0 0.00 0.00 0.00 80 1003.1
20260508073032 40 225 8.0 11.0 0.00 0.00 0.00 80 1003.2
20260508072920 40 225 7.0 11.0 0.00 0.00 0.00 81 1003.2
20260508072807 40 225 7.0 11.0 0.00 0.00 0.00 81 1003.1
20260508072656 40 225 7.0 11.0 0.00 0.00 0.00 81 1003.1
20260508072554 40 225 6.0 11.0 0.00 0.00 0.00 81 1003.0
20260508072442 40 225 8.0 11.0 0.00 0.00 0.00 81 1003.3
20260508072326 40 225 8.0 11.0 0.00 0.00 0.00 81 1003.2
20260508072106 40 225 8.0 11.0 0.00 0.00 0.00 81 1003.1
20260508071958 40 203 7.0 11.0 0.00 0.00 0.00 81 1003.3
20260508071838 40 225 8.0 11.0 0.00 0.00 0.00 81 1003.3
20260508071738 40 225 7.0 11.0 0.00 0.00 0.00 81 1003.5
20260508071627 40 225 8.0 11.0 0.00 0.00 0.00 81 1003.5
20260508071523 40 203 8.0 11.0 0.00 0.00 0.00 81 1003.4
20260508071358 40 225 8.0 11.0 0.00 0.00 0.00 81 1003.3
20260508071250 40 225 7.0 11.0 0.00 0.00 0.00 81 1003.4
20260508071144 40 225 6.0 11.0 0.00 0.00 0.00 81 1003.3
20260508071037 40 225 7.0 11.0 0.00 0.00 0.00 81 1003.3
20260508070918 40 225 6.0 11.0 0.00 0.00 0.00 81 1003.3
20260508070813 40 248 6.0 11.0 0.00 0.00 0.00 81 1003.4
20260508070705 40 225 8.0 11.0 0.00 0.00 0.00 80 1003.5
20260508070555 40 225 8.0 11.0 0.00 0.00 0.00 80 1003.5
20260508070436 40 248 8.0 11.0 0.00 0.00 0.00 80 1003.4
20260508070326 40 203 8.0 11.0 0.00 0.00 0.00 80 1003.5
20260508070216 40 225 8.0 11.0 0.00 0.00 0.00 80 1003.5
20260508070114 40 225 6.0 9.0 0.00 0.00 0.00 80 1003.4
20260508065950 40 248 7.0 11.0 0.00 0.00 0.00 80 1003.5
20260508065848 40 225 6.0 11.0 0.00 0.00 0.00 80 1003.7
20260508065813 41 248 5.0 11.0 0.00 0.00 0.00 79 1003.6
20260508065736 41 248 5.0 11.0 0.00 0.00 0.00 79 1003.5
20260508065515 41 225 7.0 11.0 0.00 0.00 0.00 78 1003.5
20260508065404 41 225 7.0 11.0 0.00 0.00 0.00 78 1003.5
20260508065255 41 203 7.0 11.0 0.00 0.00 0.00 77 1003.5
20260508065145 42 225 7.0 11.0 0.00 0.00 0.00 77 1003.5
20260508065032 42 225 7.0 11.0 0.00 0.00 0.00 77 1003.5
20260508064922 42 203 7.0 11.0 0.00 0.00 0.00 77 1003.4
20260508064811 42 203 8.0 11.0 0.00 0.00 0.00 76 1003.2
20260508064728 42 203 8.0 11.0 0.00 0.00 0.00 76 1003.4
20260508064551 42 225 8.0 11.0 0.00 0.00 0.00 76 1003.3
20260508064441 41 225 8.0 11.0 0.00 0.00 0.00 77 1003.4
20260508064331 41 203 7.0 11.0 0.00 0.00 0.00 77 1003.5
20260508064227 42 225 7.0 11.0 0.00 0.00 0.00 77 1003.4
20260508064108 42 203 7.0 11.0 0.00 0.00 0.00 77 1003.4
20260508063848 42 203 7.0 11.0 0.00 0.00 0.00 76 1003.3
20260508063746 42 225 8.0 11.0 0.00 0.00 0.00 76 1003.4
20260508063711 42 225 8.0 11.0 0.00 0.00 0.00 76 1003.5
20260508063516 42 203 8.0 11.0 0.00 0.00 0.00 76 1003.6
20260508063406 42 203 8.0 11.0 0.00 0.00 0.00 76 1003.4
20260508063304 42 225 7.0 11.0 0.00 0.00 0.00 76 1003.4
20260508063140 42 203 8.0 11.0 0.00 0.00 0.00 76 1003.6
20260508062924 42 203 8.0 11.0 0.00 0.00 0.00 75 1003.5
20260508062820 42 225 8.0 11.0 0.00 0.00 0.00 75 1003.3
20260508062704 42 225 8.0 13.0 0.00 0.00 0.00 75 1003.6
20260508062602 42 225 8.0 13.0 0.00 0.00 0.00 75 1003.4
20260508062447 42 203 7.0 13.0 0.00 0.00 0.00 76 1003.6
20260508062336 43 225 6.0 13.0 0.00 0.00 0.00 76 1003.4
20260508062220 43 203 8.0 13.0 0.00 0.00 0.00 74 1003.3
20260508062110 43 203 8.0 13.0 0.00 0.00 0.00 75 1003.4
20260508062000 43 225 8.0 13.0 0.00 0.00 0.00 74 1003.6
20260508061852 43 248 8.0 13.0 0.00 0.00 0.00 75 1003.6
20260508061734 43 203 8.0 13.0 0.00 0.00 0.00 75 1003.4
20260508061631 43 203 8.0 13.0 0.00 0.00 0.00 75 1003.3
20260508061529 43 225 7.0 13.0 0.00 0.00 0.00 75 1003.5
20260508061411 43 225 8.0 13.0 0.00 0.00 0.00 75 1003.4
20260508061252 43 180 7.0 13.0 0.00 0.00 0.00 75 1003.6
20260508061152 43 203 8.0 13.0 0.00 0.00 0.00 75 1003.3
20260508061036 43 203 8.0 13.0 0.00 0.00 0.00 75 1003.5
20260508060933 43 203 8.0 13.0 0.00 0.00 0.00 75 1003.4
20260508060809 43 203 9.0 13.0 0.00 0.00 0.00 75 1003.3
20260508060706 43 203 8.0 13.0 0.00 0.00 0.00 74 1003.3
20260508060558 43 225 8.0 13.0 0.00 0.00 0.00 74 1003.3
20260508055929 43 203 8.0 11.0 0.00 0.00 0.00 76 1003.4
20260508055829 43 225 8.0 11.0 0.00 0.00 0.00 76 1003.4
20260508055707 43 225 7.0 11.0 0.00 0.00 0.00 77 1003.6
20260508055555 43 203 7.0 11.0 0.00 0.00 0.00 76 1003.3
20260508055452 43 203 7.0 11.0 0.00 0.00 0.00 76 1003.4
20260508055342 44 225 8.0 11.0 0.00 0.00 0.00 75 1003.6
20260508055226 44 203 8.0 11.0 0.00 0.00 0.00 75 1003.5
20260508055124 44 203 8.0 11.0 0.00 0.00 0.00 75 1003.4
20260508055004 44 203 8.0 11.0 0.00 0.00 0.00 74 1003.5
20260508054903 44 225 8.0 11.0 0.00 0.00 0.00 74 1003.4
20260508054745 44 203 7.0 11.0 0.00 0.00 0.00 75 1003.7
20260508054635 44 248 8.0 11.0 0.00 0.00 0.00 74 1003.6
20260508054523 44 203 8.0 11.0 0.00 0.00 0.00 75 1003.7
20260508054415 44 203 8.0 11.0 0.00 0.00 0.00 74 1003.5
20260508054256 44 225 8.0 11.0 0.00 0.00 0.00 75 1003.6
20260508054154 44 225 8.0 11.0 0.00 0.00 0.00 75 1003.7
20260508053934 44 203 8.0 11.0 0.00 0.00 0.00 74 1003.7
20260508053813 44 225 8.0 11.0 0.00 0.00 0.00 75 1003.7
20260508053711 44 225 8.0 14.0 0.00 0.00 0.00 75 1003.5
20260508053604 45 225 8.0 14.0 0.00 0.00 0.00 74 1003.5
20260508053454 45 225 8.0 14.0 0.00 0.00 0.00 74 1003.5
20260508053335 45 225 8.0 15.0 0.00 0.00 0.00 75 1003.6
20260508053226 45 225 7.0 15.0 0.00 0.00 0.00 75 1003.7
20260508053121 45 203 8.0 15.0 0.00 0.00 0.00 75 1003.5
20260508053010 45 203 8.0 15.0 0.00 0.00 0.00 74 1003.4
20260508052858 45 203 8.0 15.0 0.00 0.00 0.00 74 1003.6
20260508052748 45 203 10.0 15.0 0.00 0.00 0.00 73 1003.6
20260508052638 45 203 9.0 15.0 0.00 0.00 0.00 73 1003.6
20260508052538 45 203 9.0 15.0 0.00 0.00 0.00 73 1003.6
20260508052408 45 203 9.0 14.0 0.00 0.00 0.00 73 1003.7
20260508052307 45 203 10.0 14.0 0.00 0.00 0.00 74 1003.6
20260508052157 45 203 8.0 14.0 0.00 0.00 0.00 74 1003.6
20260508052121 45 225 9.0 14.0 0.00 0.00 0.00 74 1003.5
20260508051927 45 203 11.0 14.0 0.00 0.00 0.00 73 1003.5
20260508051818 45 203 9.0 14.0 0.00 0.00 0.00 74 1003.5
20260508051715 46 203 10.0 14.0 0.00 0.00 0.00 73 1003.6
20260508051607 46 203 9.0 14.0 0.00 0.00 0.00 74 1003.3
20260508051338 46 203 10.0 14.0 0.00 0.00 0.00 74 1003.6
20260508051230 46 203 11.0 14.0 0.00 0.00 0.00 73 1003.5
20260508051129 46 203 11.0 14.0 0.00 0.00 0.00 74 1003.6
20260508051024 46 180 9.0 15.0 0.00 0.00 0.00 74 1003.5
20260508050854 46 203 11.0 15.0 0.00 0.00 0.00 74 1003.7
20260508050747 46 203 9.0 16.0 0.00 0.00 0.00 74 1003.4
20260508050645 46 203 8.0 16.0 0.00 0.00 0.00 74 1003.3
20260508050553 46 203 11.0 16.0 0.00 0.00 0.00 74 1003.6
20260508050416 46 225 11.0 16.0 0.00 0.00 0.00 74 1003.5
20260508050307 46 225 11.0 16.0 0.00 0.00 0.00 74 1003.5
20260508050156 46 225 10.0 16.0 0.00 0.00 0.00 75 1003.5
20260508050055 46 203 11.0 16.0 0.00 0.00 0.00 75 1003.4
20260508045934 46 203 10.0 16.0 0.00 0.00 0.00 75 1003.5
20260508045823 46 203 11.0 16.0 0.00 0.00 0.00 76 1003.4
20260508045721 46 203 11.0 16.0 0.00 0.00 0.00 76 1003.4
20260508045556 45 203 11.0 14.0 0.00 0.00 0.00 76 1003.5
20260508045452 45 225 10.0 14.0 0.00 0.00 0.00 77 1003.4
20260508045342 45 225 11.0 14.0 0.00 0.00 0.00 77 1003.3
20260508045234 45 203 11.0 14.0 0.00 0.00 0.00 78 1003.4
20260508045121 45 180 10.0 14.0 0.00 0.00 0.00 79 1003.4
20260508045009 45 225 11.0 14.0 0.00 0.00 0.00 79 1003.3
20260508044831 42 203 2.0 4.0 0.00 0.00 0.05 86 1002.2
20260508044752 44 203 9.0 13.0 0.00 0.00 0.00 80 1003.3
20260508044636 44 225 8.0 11.0 0.00 0.00 0.00 81 1003.3
20260508044528 44 203 9.0 11.0 0.00 0.00 0.00 81 1003.2
20260508044424 44 203 8.0 13.0 0.00 0.00 0.00 82 1003.3
20260508044312 44 248 7.0 13.0 0.00 0.00 0.00 82 1003.4
20260508044156 44 225 9.0 13.0 0.00 0.00 0.00 82 1003.3
20260508044045 44 203 8.0 13.0 0.00 0.00 0.00 82 1003.4
20260508043946 44 225 8.0 13.0 0.00 0.00 0.00 83 1003.3
20260508043850 44 225 8.0 13.0 0.00 0.00 0.00 83 1003.4
20260508043712 44 203 8.0 13.0 0.00 0.00 0.00 83 1003.4
20260508043602 44 203 8.0 13.0 0.00 0.00 0.00 83 1003.4
20260508043454 44 225 8.0 13.0 0.00 0.00 0.00 82 1003.4
20260508043354 44 225 8.0 13.0 0.00 0.00 0.00 82 1003.5
20260508043228 44 225 8.0 11.0 0.00 0.00 0.00 83 1003.3
20260508043124 44 225 8.0 11.0 0.00 0.00 0.00 83 1003.4
20260508043011 44 180 9.0 11.0 0.00 0.00 0.00 82 1003.5
20260508042903 44 180 8.0 11.0 0.00 0.00 0.00 83 1003.6
20260508042752 44 225 8.0 11.0 0.00 0.00 0.00 83 1003.4
20260508042641 44 225 9.0 11.0 0.00 0.00 0.00 83 1003.2
20260508042533 44 203 7.0 11.0 0.00 0.00 0.00 83 1003.3
20260508042423 44 203 8.0 11.0 0.00 0.00 0.00 83 1003.3
20260508042154 44 203 8.0 11.0 0.00 0.00 0.00 83 1003.3
20260508042054 44 225 7.0 11.0 0.00 0.00 0.00 83 1003.2
20260508041946 44 225 7.0 11.0 0.00 0.00 0.00 83 1003.3
20260508041824 44 225 8.0 11.0 0.00 0.00 0.00 82 1003.3
20260508041712 44 203 8.0 11.0 0.00 0.00 0.00 83 1003.3
20260508041604 44 203 8.0 11.0 0.00 0.00 0.00 83 1003.3
20260508041456 44 203 7.0 11.0 0.00 0.00 0.00 82 1003.2
20260508041338 44 225 8.0 11.0 0.00 0.00 0.00 82 1003.4
20260508041236 44 203 8.0 11.0 0.00 0.00 0.00 82 1003.3
20260508041126 44 203 7.0 11.0 0.00 0.00 0.00 83 1003.3
20260508041024 44 225 8.0 11.0 0.00 0.00 0.00 83 1003.3
20260508040902 44 203 7.0 11.0 0.00 0.00 0.00 83 1003.3
20260508040640 44 225 7.0 11.0 0.00 0.00 0.00 83 1003.4
20260508040541 44 203 6.0 11.0 0.00 0.00 0.00 83 1003.3
20260508040425 44 225 6.0 11.0 0.00 0.00 0.00 83 1003.3
20260508040312 44 225 7.0 11.0 0.00 0.00 0.00 83 1003.2
20260508040201 44 225 8.0 11.0 0.00 0.00 0.00 83 1003.3
20260508040052 44 203 8.0 11.0 0.00 0.00 0.00 83 1003.3
20260508035940 44 225 6.0 11.0 0.00 0.00 0.00 84 1003.2
20260508035830 44 225 7.0 11.0 0.00 0.00 0.00 83 1003.4
20260508035622 44 225 8.0 11.0 0.00 0.00 0.00 83 1003.3
20260508035452 44 225 7.0 11.0 0.00 0.00 0.00 83 1003.3
20260508035344 44 203 9.0 11.0 0.00 0.00 0.00 83 1003.3
20260508035239 44 225 8.0 11.0 0.00 0.00 0.00 83 1003.0
20260508035130 44 225 8.0 11.0 0.00 0.00 0.00 83 1003.3
20260508035014 44 225 8.0 11.0 0.00 0.00 0.00 83 1003.2
20260508034906 44 225 8.0 11.0 0.00 0.00 0.00 83 1003.3
20260508034756 44 225 7.0 11.0 0.00 0.00 0.00 83 1003.2
20260508034645 44 203 8.0 11.0 0.00 0.00 0.00 83 1003.2
20260508034527 44 203 8.0 11.0 0.00 0.00 0.00 83 1003.2
20260508034424 44 203 8.0 11.0 0.00 0.00 0.00 83 1003.2
20260508034317 44 225 8.0 11.0 0.00 0.00 0.00 83 1003.2
20260508034206 44 225 8.0 11.0 0.00 0.00 0.00 83 1003.2
20260508034047 44 225 8.0 11.0 0.00 0.00 0.00 84 1003.2
20260508033938 44 203 8.0 11.0 0.00 0.00 0.00 84 1003.1
20260508033836 44 225 8.0 11.0 0.00 0.00 0.00 84 1003.3
20260508033724 44 225 8.0 11.0 0.00 0.00 0.00 84 1003.3
20260508033606 44 225 8.0 11.0 0.00 0.00 0.00 84 1003.3
20260508033455 44 225 8.0 11.0 0.00 0.00 0.00 84 1003.3
20260508033355 44 225 6.0 11.0 0.00 0.00 0.00 84 1003.2
20260508033245 44 225 8.0 11.0 0.00 0.00 0.00 85 1003.3
20260508033016 44 203 7.0 11.0 0.00 0.00 0.00 85 1003.4
20260508032909 44 225 6.0 9.0 0.00 0.00 0.00 85 1003.2
20260508032800 44 225 6.0 9.0 0.00 0.00 0.00 84 1003.2
20260508032644 44 225 6.0 9.0 0.00 0.00 0.00 85 1003.2
20260508032532 44 225 6.0 9.0 0.00 0.00 0.00 85 1003.1
20260508032424 44 225 6.0 9.0 0.00 0.00 0.00 85 1003.1
20260508032316 44 225 6.0 8.0 0.00 0.00 0.00 84 1003.0
20260508032158 44 203 5.0 8.0 0.00 0.00 0.00 85 1003.0
20260508032054 44 203 5.0 11.0 0.00 0.00 0.00 85 1003.0
20260508031946 44 203 5.0 11.0 0.00 0.00 0.00 84 1003.1
20260508031835 44 203 6.0 11.0 0.00 0.00 0.00 84 1003.0
20260508031750 44 225 5.0 11.0 0.00 0.00 0.00 84 1002.8
20260508031723 44 203 5.0 11.0 0.00 0.00 0.00 84 1002.9
20260508031459 44 203 5.0 11.0 0.00 0.00 0.00 84 1002.7
20260508031352 44 225 7.0 11.0 0.00 0.00 0.00 84 1002.8
20260508031235 44 225 7.0 11.0 0.00 0.00 0.00 83 1002.9
20260508031216 44 225 8.0 11.0 0.00 0.00 0.00 83 1002.9
20260508031022 44 225 8.0 11.0 0.00 0.00 0.00 83 1002.8
20260508030910 44 225 8.0 11.0 0.00 0.00 0.00 83 1002.8
20260508030755 44 203 8.0 11.0 0.00 0.00 0.00 83 1002.8
20260508030646 44 203 8.0 11.0 0.00 0.00 0.00 83 1002.8
20260508030435 44 225 6.0 9.0 0.00 0.00 0.00 85 1002.8
20260508030316 44 203 7.0 9.0 0.00 0.00 0.00 85 1002.7
20260508030208 44 203 7.0 9.0 0.00 0.00 0.00 85 1002.7
20260508030058 44 203 6.0 9.0 0.00 0.00 0.00 85 1002.8
20260508025953 44 203 7.0 9.0 0.00 0.00 0.05 85 1002.7
20260508025827 44 225 7.0 9.0 0.00 0.00 0.05 85 1002.6
20260508025723 44 203 7.0 9.0 0.00 0.00 0.05 85 1002.5
20260508025620 44 203 7.0 9.0 0.00 0.00 0.05 85 1002.7
20260508025509 44 203 6.0 9.0 0.00 0.00 0.05 85 1002.7
20260508025345 44 225 6.0 9.0 0.00 0.00 0.05 85 1002.7
20260508025243 44 203 7.0 9.0 0.00 0.00 0.05 85 1002.6
20260508025135 44 203 7.0 9.0 0.00 0.00 0.05 85 1002.6
20260508025025 43 203 6.0 8.0 0.00 0.00 0.05 86 1002.6
20260508024906 43 225 6.0 8.0 0.00 0.00 0.05 86 1002.5
20260508024804 43 203 5.0 7.0 0.00 0.00 0.05 86 1002.6
20260508024654 43 203 6.0 7.0 0.00 0.00 0.05 86 1002.6
20260508024543 43 225 5.0 7.0 0.00 0.00 0.05 86 1002.8
20260508024424 42 225 4.0 6.0 0.00 0.00 0.05 87 1002.6
20260508024208 42 203 4.0 4.0 0.00 0.00 0.05 87 1002.6
20260508024100 42 203 4.0 4.0 0.00 0.00 0.05 87 1002.6
20260508023832 42 203 4.0 4.0 0.00 0.00 0.05 86 1002.5
20260508023730 42 203 4.0 4.0 0.00 0.00 0.05 86 1002.5
20260508023620 42 225 4.0 4.0 0.00 0.00 0.05 86 1002.5
20260508023501 42 203 4.0 4.0 0.00 0.00 0.05 86 1002.5
20260508023350 42 225 4.0 4.0 0.00 0.00 0.05 86 1002.4
20260508023244 42 225 4.0 4.0 0.00 0.00 0.05 86 1002.4
20260508023133 42 203 4.0 4.0 0.00 0.00 0.05 86 1002.3
20260508023017 42 203 3.0 4.0 0.00 0.00 0.05 86 1002.4
20260508022913 42 203 3.0 4.0 0.00 0.00 0.05 86 1002.3
20260508022800 42 203 3.0 4.0 0.00 0.00 0.05 86 1002.2
20260508022659 42 203 3.0 4.0 0.00 0.00 0.05 86 1002.3
20260508022549 42 203 2.0 4.0 0.00 0.00 0.05 86 1002.2
20260508022431 42 203 2.0 4.0 0.00 0.00 0.05 85 1002.4
20260508022354 43 225 3.0 4.0 0.00 0.00 0.05 85 1002.3
20260508022213 43 225 3.0 4.0 0.00 0.00 0.05 86 1002.3
20260508022057 43 225 3.0 4.0 0.00 0.00 0.05 85 1002.3
20260508021945 43 203 2.0 4.0 0.00 0.00 0.05 85 1002.2
20260508021843 43 203 2.0 4.0 0.00 0.00 0.05 85 1002.3
20260508021732 43 203 2.0 4.0 0.00 0.00 0.05 85 1002.3
20260508021614 44 203 2.0 6.0 0.00 0.00 0.05 85 1002.2
20260508021251 44 225 3.0 6.0 0.00 0.00 0.05 84 1002.2
20260508021133 45 225 3.0 6.0 0.00 0.00 0.05 83 1002.3
20260508021025 45 203 3.0 6.0 0.00 0.00 0.05 83 1002.0
20260508020914 45 203 4.0 6.0 0.00 0.00 0.05 83 1002.2
20260508020806 45 203 4.0 6.0 0.00 0.00 0.05 83 1002.3
20260508020649 46 203 4.0 7.0 0.00 0.00 0.05 82 1002.3
20260508020546 46 203 4.0 7.0 0.00 0.00 0.05 82 1002.3
20260508020438 46 225 4.0 7.0 0.00 0.00 0.05 82 1002.4
20260508020323 46 225 4.0 7.0 0.00 0.00 0.05 82 1002.2
20260508020207 46 203 4.0 7.0 0.00 0.00 0.05 81 1002.5
20260508020057 46 203 4.0 7.0 0.00 0.00 0.05 81 1002.4
20260508015949 46 225 4.0 7.0 0.00 0.00 0.05 81 1002.4
20260508015841 46 203 4.0 7.0 0.00 0.00 0.05 81 1002.2
20260508015725 46 225 5.0 7.0 0.00 0.00 0.05 81 1002.3
20260508015619 46 203 4.0 6.0 0.00 0.00 0.05 81 1002.4
20260508015510 46 225 4.0 6.0 0.00 0.00 0.05 81 1002.5
20260508015435 46 225 4.0 6.0 0.00 0.00 0.05 81 1002.3
20260508015241 46 225 4.0 6.0 0.00 0.00 0.05 80 1002.5
20260508015133 47 248 4.0 6.0 0.00 0.00 0.05 81 1002.4
20260508015030 47 203 4.0 7.0 0.00 0.00 0.05 80 1002.4
20260508014951 47 203 4.0 7.0 0.00 0.00 0.05 80 1002.4
20260508014913 47 225 4.0 7.0 0.00 0.00 0.05 80 1002.4
20260508014653 47 225 4.0 8.0 0.00 0.00 0.05 79 1002.5
20260508014543 48 225 4.0 8.0 0.00 0.00 0.05 79 1002.6
20260508014433 48 225 4.0 8.0 0.00 0.00 0.05 78 1002.4
20260508014325 48 203 4.0 8.0 0.00 0.00 0.05 77 1002.3
20260508014211 49 203 4.0 8.0 0.00 0.00 0.05 77 1002.2
20260508014059 49 203 5.0 8.0 0.00 0.00 0.05 76 1002.3
20260508013950 49 203 4.0 8.0 0.00 0.00 0.05 76 1002.2
20260508013841 49 203 5.0 9.0 0.00 0.00 0.05 76 1002.3
20260508013728 49 203 6.0 9.0 0.00 0.00 0.05 76 1002.2
20260508013618 49 180 6.0 9.0 0.00 0.00 0.05 76 1002.2
20260508013508 49 203 6.0 9.0 0.00 0.00 0.05 75 1002.4
20260508013408 49 203 6.0 9.0 0.00 0.00 0.05 75 1002.3
20260508013341 49 203 5.0 9.0 0.00 0.00 0.05 75 1002.4
20260508013139 49 225 5.0 9.0 0.00 0.00 0.05 75 1002.2
20260508013029 50 203 6.0 9.0 0.00 0.00 0.05 75 1002.3
20260508012927 50 203 6.0 9.0 0.00 0.00 0.05 75 1002.3
20260508012851 50 203 6.0 9.0 0.00 0.00 0.05 74 1002.3
20260508012656 50 203 6.0 11.0 0.00 0.00 0.05 74 1002.3
20260508012545 50 203 5.0 11.0 0.00 0.00 0.05 74 1002.4
20260508012443 50 203 7.0 11.0 0.00 0.00 0.05 74 1002.4
20260508012323 51 203 5.0 11.0 0.00 0.00 0.05 74 1002.2
20260508012102 51 225 7.0 11.0 0.00 0.00 0.05 73 1002.3
20260508011954 51 203 8.0 11.0 0.00 0.00 0.05 73 1002.4
20260508011836 51 203 6.0 11.0 0.00 0.00 0.05 73 1002.3
20260508011735 51 203 8.0 11.0 0.00 0.00 0.05 72 1002.4
20260508011627 51 203 8.0 11.0 0.00 0.00 0.05 72 1002.4
20260508011544 51 225 8.0 11.0 0.00 0.00 0.05 71 1002.4
20260508011357 51 203 8.0 11.0 0.00 0.00 0.05 72 1002.3
20260508011249 52 203 7.0 11.0 0.00 0.00 0.05 72 1002.5
20260508011140 52 203 7.0 11.0 0.00 0.00 0.05 71 1002.3
20260508011037 52 203 7.0 11.0 0.00 0.00 0.05 71 1002.6
20260508010915 52 203 8.0 11.0 0.00 0.00 0.05 70 1002.4
20260508010831 52 203 8.0 11.0 0.00 0.00 0.05 71 1002.5
20260508010756 53 225 8.0 11.0 0.00 0.00 0.05 70 1002.4
20260508010553 53 225 8.0 11.0 0.00 0.00 0.05 70 1002.5
20260508010435 53 225 8.0 11.0 0.00 0.00 0.05 69 1002.5
20260508010325 53 203 8.0 11.0 0.00 0.00 0.05 69 1002.5
20260508010223 53 225 8.0 11.0 0.00 0.00 0.05 69 1002.6
20260508010107 53 180 8.0 11.0 0.00 0.00 0.05 69 1002.5
20260508005948 54 203 8.0 11.0 0.00 0.00 0.05 68 1002.6
20260508005839 54 203 8.0 11.0 0.00 0.00 0.05 68 1002.5
20260508005737 54 180 8.0 11.0 0.00 0.00 0.05 68 1002.6
20260508005651 54 180 8.0 11.0 0.00 0.00 0.05 68 1002.6
20260508002601 54 203 8.0 13.0 0.00 0.00 0.05 67 1002.4
20260508002452 54 203 8.0 13.0 0.00 0.00 0.05 66 1002.7
20260508002352 54 203 8.0 13.0 0.00 0.00 0.05 67 1002.5
20260508002228 54 203 9.0 13.0 0.00 0.00 0.05 66 1002.5
20260508002117 54 180 9.0 13.0 0.00 0.00 0.05 66 1002.5
20260508002015 54 203 8.0 13.0 0.00 0.00 0.05 66 1002.6
20260508001907 54 203 8.0 13.0 0.00 0.00 0.05 65 1002.5
20260508001746 54 203 9.0 13.0 0.00 0.00 0.05 65 1002.4
20260508001534 54 203 8.0 13.0 0.00 0.00 0.05 65 1002.6
20260508001423 54 203 8.0 13.0 0.00 0.00 0.05 64 1002.3
20260508001303 54 180 10.0 13.0 0.00 0.00 0.05 64 1002.4
20260508001203 54 203 9.0 14.0 0.00 0.00 0.05 64 1002.6
20260508001051 55 180 8.0 14.0 0.00 0.00 0.05 65 1002.5
20260508000822 55 203 10.0 15.0 0.00 0.00 0.05 63 1002.5
20260508000712 55 203 9.0 15.0 0.00 0.00 0.05 63 1002.6
20260508000610 55 203 9.0 15.0 0.00 0.00 0.05 63 1002.7
20260508000502 55 180 9.0 15.0 0.00 0.00 0.05 63 1002.6
20260508000342 55 203 9.0 15.0 0.00 0.00 0.05 63 1002.6
20260508000231 55 203 10.0 15.0 0.00 0.00 0.05 63 1002.6
20260508000139 55 203 9.0 15.0 0.00 0.00 0.05 63 1002.4
20260508000032 55 203 10.0 15.0 0.00 0.00 0.05 63 1002.6
20260507235902 55 203 11.0 15.0 0.00 0.00 0.05 62 1002.7
20260507235754 55 225 9.0 14.0 0.00 0.00 0.05 63 1002.5
20260507235640 55 180 9.0 13.0 0.00 0.00 0.05 63 1002.6
20260507235537 55 203 8.0 14.0 0.00 0.00 0.05 63 1002.5
20260507235421 55 203 8.0 15.0 0.00 0.00 0.05 64 1002.4
20260507235309 55 203 8.0 15.0 0.00 0.00 0.05 64 1002.5
20260507235159 55 180 8.0 15.0 0.00 0.00 0.05 63 1002.5
20260507234938 55 203 9.0 15.0 0.00 0.00 0.05 63 1002.4
20260507234830 55 203 8.0 15.0 0.00 0.00 0.05 63 1002.4
20260507234719 55 180 8.0 15.0 0.00 0.00 0.05 63 1002.6
20260507234609 56 203 10.0 15.0 0.00 0.00 0.05 62 1002.5
20260507234450 56 203 11.0 15.0 0.00 0.00 0.05 63 1002.6
20260507234349 56 203 10.0 14.0 0.00 0.00 0.05 62 1002.6
20260507234238 56 180 11.0 14.0 0.00 0.00 0.05 62 1002.6
20260507234203 56 180 10.0 14.0 0.00 0.00 0.05 62 1002.5
20260507234009 56 180 11.0 14.0 0.00 0.00 0.05 62 1002.6
20260507233901 56 180 10.0 14.0 0.00 0.00 0.05 62 1002.7
20260507233759 55 203 10.0 14.0 0.00 0.00 0.05 62 1002.6
20260507233650 55 203 8.0 14.0 0.00 0.00 0.05 62 1002.7
20260507233533 55 203 10.0 14.0 0.00 0.00 0.05 63 1002.7
20260507233420 55 180 8.0 13.0 0.00 0.00 0.05 64 1002.7
20260507233311 55 203 11.0 13.0 0.00 0.00 0.05 62 1002.6
20260507233202 55 225 8.0 11.0 0.00 0.00 0.05 64 1002.6
20260507233046 55 203 8.0 11.0 0.00 0.00 0.05 64 1002.6
20260507232943 55 203 8.0 11.0 0.00 0.00 0.05 65 1002.5
20260507232835 54 203 7.0 11.0 0.00 0.00 0.05 65 1002.6
20260507232723 54 180 8.0 11.0 0.00 0.00 0.05 65 1002.5
20260507232603 54 225 6.0 11.0 0.00 0.00 0.05 66 1002.6
20260507232346 54 203 7.0 9.0 0.00 0.00 0.05 66 1002.6
20260507232245 54 180 6.0 9.0 0.00 0.00 0.05 66 1002.6
20260507232126 54 225 6.0 9.0 0.00 0.00 0.05 67 1002.4
20260507232016 53 203 7.0 9.0 0.00 0.00 0.05 67 1002.5
20260507231907 53 203 7.0 9.0 0.00 0.00 0.05 67 1002.4
20260507231757 53 203 6.0 8.0 0.00 0.00 0.05 68 1002.5
20260507231647 53 203 4.0 8.0 0.00 0.00 0.05 68 1002.5
20260507231530 53 203 5.0 8.0 0.00 0.00 0.05 68 1002.5
20260507231426 53 180 5.0 7.0 0.00 0.00 0.05 68 1002.6
20260507231324 53 203 4.0 7.0 0.00 0.00 0.05 68 1002.6
20260507231156 53 203 4.0 7.0 0.00 0.00 0.05 68 1002.6
20260507231104 53 225 4.0 7.0 0.00 0.00 0.05 68 1002.5
20260507231037 53 203 4.0 7.0 0.00 0.00 0.05 68 1002.5
20260507230834 53 203 4.0 7.0 0.00 0.00 0.05 68 1002.6
20260507230731 53 203 4.0 7.0 0.00 0.00 0.05 68 1002.5
20260507230609 54 203 4.0 7.0 0.00 0.00 0.05 68 1002.5
20260507230459 54 203 5.0 7.0 0.00 0.00 0.05 68 1002.7
20260507230413 54 203 4.0 7.0 0.00 0.00 0.05 67 1002.4
20260507230242 54 203 5.0 8.0 0.00 0.00 0.05 67 1002.4
20260507230127 54 203 5.0 8.0 0.00 0.00 0.05 66 1002.3
20260507230017 54 203 5.0 9.0 0.00 0.00 0.05 66 1002.5
20260507225756 55 203 4.0 11.0 0.00 0.00 0.05 66 1002.4
20260507225646 55 180 4.0 11.0 0.00 0.00 0.05 66 1002.2
20260507225537 55 203 5.0 11.0 0.00 0.00 0.05 65 1002.3
20260507225435 55 203 5.0 13.0 0.00 0.00 0.05 65 1002.4
20260507225312 55 203 6.0 13.0 0.00 0.00 0.05 64 1002.4
20260507225204 55 180 5.0 13.0 0.00 0.00 0.05 64 1002.2
20260507225054 55 203 8.0 13.0 0.00 0.00 0.05 64 1002.2
20260507224945 56 203 6.0 13.0 0.00 0.00 0.05 64 1002.3
20260507224831 56 203 8.0 13.0 0.00 0.00 0.05 63 1002.2
20260507224723 56 203 6.0 13.0 0.00 0.00 0.05 63 1002.4
20260507224612 56 203 6.0 14.0 0.00 0.00 0.05 63 1002.2
20260507224509 56 203 8.0 14.0 0.00 0.00 0.05 61 1002.2
20260507224239 57 203 8.0 14.0 0.00 0.00 0.05 62 1002.2
20260507224130 57 203 8.0 14.0 0.00 0.00 0.05 61 1002.2
20260507224023 57 203 7.0 14.0 0.00 0.00 0.05 61 1002.2
20260507223904 57 203 8.0 14.0 0.00 0.00 0.05 61 1002.1
20260507223759 57 180 10.0 14.0 0.00 0.00 0.05 60 1002.1
20260507223651 57 203 9.0 14.0 0.00 0.00 0.05 60 1002.1
20260507223546 57 203 10.0 13.0 0.00 0.00 0.05 60 1002.1
20260507223427 57 203 8.0 13.0 0.00 0.00 0.05 61 1001.9
20260507223207 57 203 10.0 16.0 0.00 0.00 0.05 59 1002.2
20260507223100 57 180 9.0 16.0 0.00 0.00 0.05 60 1002.1
20260507222940 57 203 10.0 16.0 0.00 0.00 0.05 60 1001.9
20260507222840 57 180 7.0 16.0 0.00 0.00 0.05 61 1002.2
20260507222759 57 180 9.0 16.0 0.00 0.00 0.05 60 1001.9
20260507222621 57 203 10.0 16.0 0.00 0.00 0.05 60 1001.9
20260507222502 57 203 9.0 16.0 0.00 0.00 0.05 60 1002.0
20260507222353 57 203 11.0 16.0 0.00 0.00 0.05 59 1001.9
20260507222242 57 203 9.0 16.0 0.00 0.00 0.05 59 1001.6
20260507222134 58 203 11.0 16.0 0.00 0.00 0.05 59 1001.8
20260507222021 58 203 11.0 16.0 0.00 0.00 0.05 59 1001.7
20260507221911 58 225 9.0 16.0 0.00 0.00 0.05 59 1001.8
20260507221809 58 203 8.0 16.0 0.00 0.00 0.05 60 1001.6
20260507221659 58 158 10.0 16.0 0.00 0.00 0.05 59 1001.7
20260507221533 58 180 11.0 16.0 0.00 0.00 0.05 58 1001.4
20260507221426 58 180 9.0 16.0 0.00 0.00 0.05 59 1001.5
20260507221324 58 225 11.0 16.0 0.00 0.00 0.05 59 1001.5
20260507221211 58 203 12.0 16.0 0.00 0.00 0.05 58 1001.5
20260507221059 58 203 11.0 16.0 0.00 0.00 0.05 58 1001.5
20260507220948 58 248 10.0 16.0 0.00 0.00 0.05 59 1001.3
20260507220913 58 203 11.0 16.0 0.00 0.00 0.05 58 1001.2
20260507220844 58 180 11.0 20.0 0.00 0.00 0.05 58 1001.5
20260507220613 58 203 9.0 20.0 0.00 0.00 0.05 58 1001.5
20260507220513 58 203 10.0 20.0 0.00 0.00 0.05 58 1001.4
20260507220357 58 180 11.0 20.0 0.00 0.00 0.05 58 1001.5
20260507220249 58 180 12.0 20.0 0.00 0.00 0.05 57 1001.5
20260507220127 58 203 11.0 20.0 0.00 0.00 0.05 58 1001.3
20260507220027 58 180 10.0 20.0 0.00 0.00 0.05 58 1001.3
20260507215916 58 180 12.0 22.0 0.00 0.00 0.05 57 1001.2
20260507215806 58 203 15.0 22.0 0.00 0.00 0.05 57 1001.1
20260507215646 58 180 11.0 22.0 0.00 0.00 0.05 58 1001.0
20260507215540 58 113 14.0 22.0 0.00 0.00 0.05 57 1001.0
20260507215429 58 180 11.0 22.0 0.00 0.00 0.05 58 1001.0
20260507215330 58 203 10.0 22.0 0.00 0.00 0.05 58 1001.0
20260507215209 58 158 12.0 22.0 0.00 0.00 0.05 58 1000.9
20260507215057 58 203 12.0 22.0 0.00 0.00 0.05 58 1001.0
20260507214949 58 180 14.0 21.0 0.00 0.00 0.05 57 1000.8
20260507214839 58 203 11.0 18.0 0.00 0.00 0.05 58 1001.1
20260507214723 58 203 10.0 18.0 0.00 0.00 0.05 59 1000.8
20260507214613 58 180 12.0 18.0 0.00 0.00 0.05 58 1000.8
20260507214512 58 203 11.0 18.0 0.00 0.00 0.05 58 1000.5
20260507214402 58 180 12.0 20.0 0.00 0.00 0.05 58 1000.7
20260507214243 58 180 11.0 20.0 0.00 0.00 0.05 59 1000.6
20260507214031 58 203 14.0 20.0 0.00 0.00 0.05 58 1000.6
20260507213915 58 203 11.0 20.0 0.00 0.00 0.05 58 1000.6
20260507213804 58 180 13.0 20.0 0.00 0.00 0.05 58 1000.6
20260507213654 58 203 12.0 20.0 0.00 0.00 0.05 59 1000.5
20260507213542 58 203 11.0 20.0 0.00 0.00 0.05 59 1000.6
20260507213434 58 203 14.0 20.0 0.00 0.00 0.05 59 1000.5
20260507213316 58 225 13.0 20.0 0.00 0.00 0.05 58 1000.4
20260507213208 58 180 10.0 15.0 0.00 0.00 0.05 58 1000.4
20260507213106 58 203 11.0 15.0 0.00 0.00 0.05 59 1000.4
20260507212956 58 203 11.0 15.0 0.00 0.00 0.05 59 1000.5
20260507212838 58 180 10.0 15.0 0.00 0.00 0.05 59 1000.4
20260507212726 58 203 9.0 17.0 0.00 0.00 0.05 60 1000.4
20260507212624 58 158 8.0 17.0 0.00 0.00 0.05 60 1000.4
20260507212510 58 203 12.0 17.0 0.00 0.00 0.05 59 1000.4
20260507212354 58 203 10.0 17.0 0.00 0.00 0.05 59 1000.5
20260507212244 58 180 10.0 17.0 0.00 0.00 0.05 59 1000.4
20260507212143 59 203 9.0 17.0 0.00 0.00 0.05 59 1000.4
20260507212032 59 203 9.0 17.0 0.00 0.00 0.05 59 1000.4
20260507211916 59 180 11.0 17.0 0.00 0.00 0.05 59 1000.5
20260507211802 59 203 10.0 17.0 0.00 0.00 0.05 59 1000.3
20260507211718 59 158 12.0 16.0 0.00 0.00 0.05 59 1000.2
20260507211645 59 225 11.0 15.0 0.00 0.00 0.05 59 1000.2
20260507202427 60 180 17.0 23.0 0.00 0.00 0.05 56 1000.7
20260507202307 60 180 17.0 23.0 0.00 0.00 0.05 57 1000.6
20260507202203 60 180 15.0 23.0 0.00 0.00 0.05 57 1000.5
20260507202046 60 203 13.0 24.0 0.00 0.00 0.05 58 1000.7
20260507201932 60 203 13.0 24.0 0.00 0.00 0.05 58 1000.5
20260507201824 60 180 16.0 24.0 0.00 0.00 0.05 57 1000.6
20260507201714 60 180 15.0 24.0 0.00 0.00 0.05 57 1000.6
20260507201558 60 158 14.0 24.0 0.00 0.00 0.05 57 1000.5
20260507201448 60 203 12.0 25.0 0.00 0.00 0.05 58 1000.6
20260507201348 60 203 15.0 25.0 0.00 0.00 0.05 57 1000.6
20260507201235 60 180 17.0 27.0 0.00 0.00 0.05 57 1000.5
20260507201117 60 180 17.0 27.0 0.00 0.00 0.05 56 1000.6
20260507200904 60 158 16.0 27.0 0.00 0.00 0.05 56 1000.6
20260507200754 60 203 15.0 27.0 0.00 0.00 0.05 58 1000.6
20260507200638 60 203 17.0 27.0 0.00 0.00 0.05 58 1000.6
20260507200528 60 225 15.0 27.0 0.00 0.00 0.05 57 1000.8
20260507200418 60 180 19.0 27.0 0.00 0.00 0.05 57 1000.6
20260507200314 60 180 19.0 27.0 0.00 0.00 0.05 56 1000.6
20260507200156 60 158 21.0 27.0 0.00 0.00 0.05 56 1000.6
20260507200048 60 180 21.0 27.0 0.00 0.00 0.05 56 1000.5
20260507195942 60 180 21.0 27.0 0.00 0.00 0.05 56 1000.6
20260507195833 60 225 15.0 27.0 0.00 0.00 0.05 56 1000.7
20260507195708 60 203 18.0 27.0 0.00 0.00 0.05 56 1000.6
20260507195606 60 180 21.0 27.0 0.00 0.00 0.05 55 1000.4
20260507195456 60 180 21.0 27.0 0.00 0.00 0.05 55 1000.3
20260507195350 60 225 17.0 25.0 0.00 0.00 0.05 56 1000.4
20260507195225 60 225 17.0 25.0 0.00 0.00 0.05 56 1000.4
20260507195123 60 203 14.0 27.0 0.00 0.00 0.05 56 1000.4
20260507195014 60 203 14.0 27.0 0.00 0.00 0.05 56 1000.5
20260507194903 60 158 18.0 27.0 0.00 0.00 0.05 56 1000.2
20260507194745 60 158 19.0 27.0 0.00 0.00 0.05 55 1000.3
20260507194637 60 203 15.0 30.0 0.00 0.00 0.05 55 1000.1
20260507194602 60 203 19.0 30.0 0.00 0.00 0.05 55 1000.4
20260507194533 60 180 17.0 31.0 0.00 0.00 0.05 55 1000.2
20260507194306 60 180 15.0 31.0 0.00 0.00 0.05 55 1000.1
20260507194158 60 203 21.0 31.0 0.00 0.00 0.05 54 1000.3
20260507194047 60 180 18.0 31.0 0.00 0.00 0.05 55 1000.0
20260507193939 60 158 17.0 31.0 0.00 0.00 0.05 55 999.8
20260507193821 61 203 19.0 31.0 0.00 0.00 0.05 54 1000.0
20260507193714 61 203 21.0 31.0 0.00 0.00 0.05 55 999.8
20260507193612 61 158 21.0 31.0 0.00 0.00 0.05 54 999.6
20260507193504 61 180 21.0 31.0 0.00 0.00 0.05 54 999.6
20260507193344 61 158 21.0 30.0 0.00 0.00 0.05 55 999.7
20260507193233 61 158 20.0 30.0 0.00 0.00 0.05 54 999.7
20260507193125 61 180 21.0 29.0 0.00 0.00 0.05 54 999.6
20260507193016 61 203 15.0 29.0 0.00 0.00 0.05 55 999.6
20260507192905 61 203 14.0 29.0 0.00 0.00 0.05 54 999.6
20260507192754 62 180 18.0 29.0 0.00 0.00 0.05 53 999.3
20260507192644 62 203 17.0 29.0 0.00 0.00 0.05 54 999.5
20260507192536 62 135 20.0 29.0 0.00 0.00 0.05 53 999.5
20260507192417 62 180 23.0 29.0 0.00 0.00 0.05 52 999.4
20260507192308 62 180 15.0 27.0 0.00 0.00 0.05 54 999.5
20260507192205 62 203 17.0 30.0 0.00 0.00 0.05 52 999.5
20260507192055 62 180 17.0 34.0 0.00 0.00 0.05 54 999.5
20260507192004 62 225 18.0 34.0 0.00 0.00 0.05 53 999.5
20260507191934 62 180 19.0 34.0 0.00 0.00 0.05 53 999.5
20260507191717 62 180 21.0 34.0 0.00 0.00 0.05 53 999.4
20260507191609 62 158 19.0 34.0 0.00 0.00 0.05 52 999.3
20260507191450 62 180 17.0 34.0 0.00 0.00 0.05 52 999.3
20260507191348 62 158 21.0 34.0 0.00 0.00 0.05 52 999.1
20260507191238 63 225 23.0 34.0 0.00 0.00 0.05 52 999.2
20260507191134 63 203 20.0 30.0 0.00 0.00 0.05 52 999.2
20260507191015 63 203 22.0 30.0 0.00 0.00 0.05 51 999.0
20260507190905 62 158 20.0 30.0 0.00 0.00 0.05 52 999.1
20260507190754 62 203 21.0 30.0 0.00 0.00 0.05 52 999.1
20260507190646 62 203 19.0 30.0 0.00 0.00 0.05 52 999.1
20260507190528 62 203 21.0 29.0 0.00 0.00 0.05 52 999.2
20260507190426 62 203 19.0 29.0 0.00 0.00 0.05 53 998.9
20260507190326 62 180 22.0 32.0 0.00 0.00 0.05 52 999.1
20260507190204 62 180 20.0 32.0 0.00 0.00 0.05 52 998.9
20260507190045 62 180 20.0 32.0 0.00 0.00 0.05 52 998.8
20260507185943 62 203 19.0 32.0 0.00 0.00 0.05 51 998.9
20260507185832 62 180 20.0 32.0 0.00 0.00 0.05 52 998.7
20260507185722 62 180 19.0 32.0 0.00 0.00 0.05 52 998.6
20260507185606 63 180 21.0 32.0 0.00 0.00 0.05 51 998.8
20260507185455 63 180 21.0 32.0 0.00 0.00 0.05 51 998.8
20260507185347 63 180 22.0 32.0 0.00 0.00 0.05 51 998.8